Location: Binningen
(47.7924°N, 8.7261°E)
Time: 04:43:19
(UTC+00:00)

Cosmos 1151 Rocket - Pass Details

Date: 17 May 2021
Orbit: 592 x 616 km, 82.5° (Epoch: 14 June)

Event Time Altitude Azimuth Distance (km) Brightness Sun altitude
Rises 19:33:53 0° 193° (SSW) 2,868 6.2 -5.6°
Reaches altitude 10° 19:36:06 10° 195° (SSW) 1,970 5.4 -5.9°
Maximum altitude 19:40:27 73° 280° (W) 650 3.4 -6.5°
Drops below altitude 10° 19:44:52 10° 6° (N) 1,990 6.2 -7.1°
Sets 19:47:07 0° 8° (N) 2,900 7.0 -7.4°
